Regional Weather Roundup
Issued by NWS Lake Charles, LA

Home | Current Version | Previous Version | Text Only | Print | Product List | Glossary On
Versions: 1 2 3 4 5 6 7 8 9 10 11 12 13 14 15 16 17 18 19 20 21 22 23 24 25 26 27
000
ASUS44 KLCH 250011
RWRLCH
REGIONAL WEATHER ROUNDUP
NATIONAL WEATHER SERVICE LAKE CHARLES LA
700 PM CDT SAT JUN 24 2017

Note: "fair" indicates few or no clouds below 12,000 feet with no
significant weather and/or obstructions to visibility.


ACROSS SOUTHEAST TEXAS

CITY           SKY/WX    TMP DP  RH WIND       PRES   REMARKS
BEAUMONT       MOSUNNY   84  72  67 N7        30.01S
BEAUMONT CITY  FAIR     N/A N/A N/A MISG      30.02S
ORANGE         PTCLDY    85  74  69 N5        30.03S
JASPER           N/A     83  76  79 CALM      30.05R
$$

ACROSS CENTRAL LOUISIANA

CITY           SKY/WX    TMP DP  RH WIND       PRES   REMARKS
LEESVILLE      MOSUNNY   77  74  90 E6        30.03S
FULLERTON      FAIR      76  74  93 VRB3      30.02S
ALEXANDRIA INT LGT RAIN  74  73  97 NE3       30.03F
ESLER FIELD    CLOUDY    76  75  97 E3        30.05F
DERIDDER       FAIR      80  79  95 CALM      30.05R
OAKDALE        CLOUDY    78  75  89 NE5       30.05R
OPELOUSAS      FAIR      79  74  85 N5        30.05S
$$

ACROSS SOUTHWEST AND SOUTH CENTRAL LOUISIANA

CITY           SKY/WX    TMP DP  RH WIND       PRES   REMARKS
SULPHUR        PTCLDY    85  76  75 NE5       30.02F
LAKE CHARLES   CLOUDY    84  79  85 E5        30.01F
CHENNAULT INT  NOT AVBL
CAMERON PHI    CLEAR     84  77  79 S6        30.01S
DEQUINCY       FAIR      83  73  70 CALM      30.03R
JENNINGS       FAIR     N/A N/A N/A NE10      30.04R
LAFAYETTE      CLOUDY    79  78  97 SE3       30.05S
NEW IBERIA     CLOUDY    79  73  82 N6        30.06R
ABBEVILLE      NOT AVBL
PATTERSON      LGT RAIN  77  75  93 E9        30.06S
SALT POINT       N/A     82  74  76 VRB5      30.04R
$$

SELECTED SITES ACROSS THE REGION

CITY           SKY/WX    TMP DP  RH WIND       PRES   REMARKS
HOUSTON BUSH   CLOUDY    84  74  71 E9        29.99S
HOUSTON HOBBY  CLOUDY    85  75  72 E7        29.98S
GALVESTON      MOSUNNY   85  76  74 E12       29.99F
COLLEGE STAT   CLOUDY    81  72  74 E6        30.03R
CONROE         CLOUDY    81  75  82 E6        30.01S
HUNTSVILLE     CLOUDY    81  72  74 E5        30.03R
LUFKIN         CLOUDY    83  73  72 E7        30.02S
SHREVEPORT     CLOUDY    80  70  71 NE13      30.06R
MONROE         CLOUDY    81  68  64 NE6       30.08R
NATCHEZ MS     LGT RAIN  76  73  91 W8        30.08R
BATON ROUGE    CLOUDY    78  75  90 NE5       30.05R
N.O. INTL ARPT PTSUNNY   78  74  87 CALM      30.05S
SLIDELL        CLOUDY    77  75  93 CALM      30.04S
$$

MARINE REPORTS

STATION/POSITION TIME  SKY/WX   TEMP    WIND        PRES    VSBY
                                AIR SEA DIR/SP/G
                 (UTC)          (F)     (DEG/KT/KT) (MB)    (MI)
BUOY 30 S HIGH I 2250            86 88   CALM  /  2 1016.2
WVE H/P(F/S)=  3/ 7

SEA RIM ST PARK  2300            85     360/  6/  7 1016.7F
PORT ARTHUR      2348            84 84   30/  4/  5 1016.5S
SABINE PASS N    2348            85 87   30/  5/  7 1017.7F
TEXAS POINT      NOT AVBL
CALCASIEU PASS   2348            84 86  220/  6/  7   N/A
LK CHARLES BEACH 2348            86 81              1016.9F
MARSH ISLAND     2300            86                   N/A
FRESH WATER LOCK 2348            86 87  200/  5/  6 1016.9F
AMERADA PASS     2348            84 87  280/  3/  4 1017.5R
$$




USA.gov is the U.S. government's official web portal to all federal, state and local government web resources and services.